Regional Weather Roundup
Issued by NWS Goodland, KS

Home | Current Version | Previous Version | Graphics & Text | Print | Product List | Glossary On
Versions: 1 2 3 4 5 6 7 8 9 10 11 12 13 14 15 16 17 18 19 20 21 22 23 24 25 26 27 28 29 30 31 32 33 34 35 36 37 38 39 40 41 42 43 44 45 46 47 48 49 50
231
ASUS43 KGLD 250008
RWRGLD

GOODLAND FORECAST AREA HOURLY WEATHER ROUNDUP
NATIONAL WEATHER SERVICE GOODLAND KS
600 PM MDT MON APR 24 2017

...OFFICIAL OBSERVATIONS...

CITY           SKY/WX    TMP DP  RH WIND       PRES   REMARKS
GOODLAND KS    MOSUNNY   72  39  30 E10       29.53F
HILL CITY KS   SUNNY     78  44  29 NE9       29.50S
IMPERIAL NEB   CLOUDY    69  38  32 N6        29.55R
MCCOOK NEB     MOSUNNY   75  39  27 CALM      29.52R
AKRON CO       CLOUDY    62  35  36 E10       29.57F
BURLINGTON CO  NOT AVBL
LIMON CO       CLOUDY    63  35  35 E13       29.58F
$$

...UNOFFICIAL OBSERVATIONS...

CITY           SKY/WX    TMP DP  RH WIND       PRES   REMARKS
LENORA KS        N/A     75  32  20 MISG        N/A
NORTON KS      SUNNY     73  37  27 NE9       29.51
SHARON SPRINGS   N/A     70  44  39 NE10        N/A
TRENTON NEB      N/A     68  32  26 NW5         N/A
$$




USA.gov is the U.S. government's official web portal to all federal, state and local government web resources and services.